Orbital Elements at Epoch 2459000.5 (2020-May-31.0) TDB
Reference: JPL 22 (heliocentric ecliptic J2000)
Element | Value | Uncertainty (1-sigma) | Units |
e | .2379112746863183 | 5.1205e-07 | |
a | 2.543869035510222 | 4.7068e-08 | au |
q | 1.93865391063693 | 1.3338e-06 | au |
i | 7.451887116014145 | 2.0288e-05 | deg |
node | 209.9027356895316 | 6.5088e-05 | deg |
peri | 235.4553659896541 | 0.00013653 | deg |
M | 204.0713048777724 | 0.00011496 | deg |
tp | 2459642.395149872695 (2022-Mar-03.89514987) | 0.00048954 | TDB |
period | 1481.97388410794 4.06 | 4.113e-05 1.126e-07 | d yr |
n | .2429192604947277 | 6.7419e-09 | deg/d |
Q | 3.149084160383514 | 5.8266e-08 | au |
|
| | Orbit Determination Parameters
Additional Information
|